Location: Bah�a Nacascolo
(11.2686°N, 85.8936°W)
Time: 03:06:32
(UTC+00:00)

Daily predictions for brighter satellites

Satellite Brightness Start Highest point End
(mag) Time Altitude Azimuth Time Altitude Azimuth Time Altitude Azimuth
FALCON 9 R/B 1.2 00:00:57 10° SSW 00:02:57 31° SE 00:04:14 19° E
Cosmos 2058 4.4 00:01:39 10° NE 00:04:13 16° E 00:06:47 10° ESE
Meteor 2-15 4.5 00:00:26 10° S 00:06:35 88° W 00:12:44 10° N
Cosmos 1315 Rocket 2.7 00:04:49 10° S 00:08:43 88° E 00:12:38 10° N
Hubble Space Telescope 1.0 00:05:42 10° NW 00:09:43 52° NNE 00:12:18 20° E
SL-16 R/B 3.8 00:07:51 10° SE 00:10:27 14° ESE 00:10:27 14° ESE
SWIFT 2.4 00:12:42 10° WNW 00:16:55 59° NNE 00:19:07 26° E
CZ-2C R/B 3.6 00:15:36 20° ENE 00:17:24 24° E 00:21:34 10° SSE
Meteor 2-1 Rocket 4.4 00:15:09 10° SSW 00:20:41 72° W 00:26:10 10° N
IRS-1C Rocket 4.0 00:16:27 10° SSE 00:21:42 80° ENE 00:26:57 10° N
Cosmos 1697 Rocket 4.5 00:18:48 10° SW 00:23:42 32° WNW 00:28:38 10° N
Ariane H10+ 3.5 00:12:45 10° W 00:23:57 56° S 00:25:53 25° ESE
Cosmos 2227 Rocket 3.2 00:22:07 10° NNE 00:25:59 24° ENE 00:25:59 24° ENE
SL-08 R/B 4.3 00:24:35 10° N 00:30:41 78° E 00:36:46 10° S
Cosmos 1340 2.8 00:29:32 10° N 00:33:17 74° W 00:37:02 10° S
Cosmos 1745 Rocket 4.1 00:28:22 10° N 00:34:33 55° E 00:40:45 10° SSE
CRYOSAT 2 4.3 00:34:02 10° N 00:38:53 86° W 00:43:45 10° S
ARIANE 5 R/B 2.6 00:34:57 10° WSW 00:39:42 29° SSW 00:40:15 27° S
Cosmos 1455 4.3 00:38:01 10° SW 00:41:15 28° W 00:44:31 10° NNW
GPS 2-14 Rocket1 2.9 00:37:45 10° WNW 00:41:48 52° NNE 00:42:02 51° NNE
YAOGAN 1 2.4 00:37:50 10° SSE 00:42:06 65° ENE 00:46:22 10° N
Cosmos-2242 2.8 00:40:41 10° S 00:44:52 65° E 00:45:17 61° ENE
GPS 2-12 Rocket1 2.8 00:41:03 10° WNW 00:45:28 82° NNE 00:46:04 65° E
ARIANE 5 R/B 4.2 00:20:10 10° W 00:46:19 39° SSW 00:49:34 21° SE
Cosmos 1980 Rocket 3.4 00:41:09 10° SW 00:46:27 42° WNW 00:51:45 10° N
Cosmos 1386 Rocket 4.4 00:41:00 10° N 00:47:17 70° E 00:53:27 10° S
CSL-04 Debris 4.3 00:46:47 10° SSE 00:52:38 49° NE 00:57:16 10° N
H-10 deb 3.6 00:17:08 10° W 00:52:06 67° S 00:54:30 38° ESE
Cosmos 968 Rocket 4.5 00:49:30 10° N 00:52:13 30° NNE 00:52:13 30° NNE
Helios 1A Rocket 4.5 00:58:55 10° SSW 01:02:43 36° W 01:06:32 10° NNW
Cosmos 2315 Rocket 4.2 00:57:49 10° SSW 01:04:00 68° W 01:10:10 10° N
Cosmos 2297 Rocket 2.0 01:00:47 10° NNW 01:06:26 88° ENE 01:09:32 28° SSE
CZ-2C R/B 3.5 01:01:11 10° S 01:06:56 70° WSW 01:12:43 10° NNW
Okean-O 4.4 01:11:50 10° SSW 01:15:43 30° W 01:19:37 10° NW
Cosmos 1486 Rocket 4.4 01:11:03 10° NNW 01:15:07 54° NNW 01:15:07 54° NNW
CZ-2C R/B 3.2 01:13:01 10° SW 01:14:57 25° SSW 01:14:57 25° SSW
Cosmos 2322 Rocket 3.3 01:12:49 10° S 01:15:49 32° S 01:15:49 32° S
H-2A R/B 3.4 01:14:38 10° NW 01:18:38 67° NNE 01:19:45 60° ENE
CZ-4 R/B 3.5 01:15:21 10° SSW 01:18:39 25° W 01:21:55 10° NW
Ariane H10-3 3.5 01:08:31 10° W 01:21:41 41° SSW 01:22:01 41° S
ARIANE 5 DEB (SYLDA) 4.5 01:24:42 10° WSW 01:35:09 37° SSW 01:35:21 37° S
Cosmos 2219 4.5 01:31:53 10° NW 01:37:10 38° WSW 01:42:25 10° S
ATLAS 3B CENTAUR R/B 4.4 01:30:52 10° SSW 01:35:35 30° SSE 01:35:35 30° SSE
H-2A R/B 3.6 01:33:00 10° S 01:41:22 21° NW 01:43:11 10° NNW
Hubble Space Telescope 4.0 01:47:20 10° W 01:47:40 12° W 01:47:40 12° W
SL-16 R/B 3.8 01:49:06 10° SW 01:52:24 31° WSW 01:52:24 31° WSW
GPS 2-15 Rocket1 3.7 09:39:26 56° ESE 09:39:26 56° ESE 09:43:38 10° E
FENGYUN 3A 4.5 09:39:42 10° NNE 09:44:57 50° ESE 09:50:11 10° S
Cosmos 1110 Rocket 3.9 09:48:19 64° N 09:49:07 82° ENE 09:54:19 10° SSE
H-2A R/B 3.3 09:45:13 10° SSE 09:49:27 42° ENE 09:53:18 12° N
Nadezhda 4 Rocket 3.8 09:47:50 10° S 09:53:56 75° W 10:00:02 10° N
Delta 168 4.0 09:58:11 28° NE 09:58:11 28° NE 10:00:31 10° E
ADEOS Rocket 3.2 09:53:35 10° SSE 09:59:11 60° ENE 10:04:34 10° N
Landsat 5 3.4 09:58:55 10° SSE 10:03:04 80° ENE 10:04:15 45° N
ADEOS 3.5 09:58:23 10° NNE 10:03:36 89° W 10:08:49 10° SSW
SEDSat Delta rocket 4.0 10:04:37 30° SSW 10:04:37 30° SSW 10:07:34 10° SSE
Cosmos 1356 Rocket 3.8 10:07:11 47° SSW 10:07:11 47° SSW 10:10:16 10° S
CZ-4C R/B 4.4 10:11:31 10° S 10:13:04 25° SSW 10:13:04 25° SSW
Cosmos 2180 Rocket 4.4 10:10:28 10° NNW 10:16:35 66° W 10:22:38 10° S
GPS 2-17 Rocket1 3.7 10:15:42 34° NNW 10:16:59 42° NNE 10:21:22 10° E
ALOS 2.1 10:13:39 10° N 10:18:16 65° WNW 10:22:53 10° SSW
Cosmos 1953 3.8 10:20:18 22° SW 10:20:18 22° SW 10:22:03 10° SSW
Cosmos 1892 Rocket 3.4 10:16:18 10° S 10:20:38 89° WNW 10:24:57 10° N
deb Chang Zheng 4 3.5 10:19:36 10° N 10:23:47 59° WNW 10:28:01 10° SSW
SJ-12 4.3 10:23:10 10° NNE 10:27:13 67° E 10:31:15 10° S
Cosmos 1484 Rocket 3.0 10:24:23 10° N 10:27:54 40° WNW 10:31:24 10° SSW
SL-19 R/B 3.6 10:25:33 10° N 10:28:33 64° WNW 10:31:55 10° SSW
ATLAS CENTAUR Rocket 2.4 10:28:09 21° NW 10:30:47 46° NNE 10:34:39 10° E
Centaur AC-116 4.3 10:20:16 15° WSW 10:32:04 55° NNW 10:35:51 10° NE
GPS 2-18 Rocket1 3.9 10:32:28 28° NW 10:33:26 33° NNW 10:36:47 10° NE
Cosmos 614 Rocket 4.0 10:28:30 10° SSW 10:33:33 54° WNW 10:38:34 10° N
Meteor 1-24 Rocket 3.9 10:29:44 10° SSW 10:34:51 43° W 10:40:09 10° NNW
Meteor PRIRODA 4.4 10:31:22 10° NNE 10:34:57 55° E 10:38:35 10° S
Cosmos 2082 Rocket 4.1 10:40:17 11° NW 10:40:17 11° NW 10:40:40 10° NW
Cosmos 1428 Rocket 4.4 10:32:04 10° S 10:38:20 77° W 10:44:33 10° N
Ariane H10 2.0 10:38:50 15° SSE 10:38:50 15° SSE 10:39:35 10° SE
METEOR-M 4.3 10:34:43 10° N 10:39:49 49° WNW 10:44:56 10° SSW
Delta 128 4.4 10:37:59 17° NW 10:41:09 43° NNE 10:45:40 10° E
H-II Stage 2 4.0 10:40:25 19° W 10:43:11 28° NW 10:45:37 10° NNE
NATO 3D Rocket 4.0 10:38:52 11° SW 10:43:26 57° SSE 10:49:14 10° E
ARIANE 5 R/B 4.1 10:43:37 10° SW 10:45:45 12° SSW 10:47:11 10° S
ERS-2 2.0 10:44:55 10° S 10:48:33 78° W 10:52:10 10° NNW
Cosmos 1656 3.7 10:44:20 10° NNW 10:49:53 58° WSW 10:55:22 10° S
Cosmos 2026 Rocket 4.1 10:44:39 10° SSW 10:50:47 54° W 10:56:59 10° N
Meteor 1-31 Rocket 3.7 10:49:28 10° NNW 10:52:45 26° WNW 10:56:02 10° SW
Cosmos 1023 Rocket 4.4 10:49:49 10° SSW 10:54:54 69° WNW 10:59:56 10° N
CZ-4B R/B 3.3 10:56:28 10° N 11:00:35 46° WNW 11:04:50 10° SSW
ATLAS CENTAUR R/B 2.3 10:58:02 10° WSW 11:01:32 25° WNW 11:04:53 10° N
Cosmos 1190 Rocket 4.0 10:57:06 10° SSW 11:02:18 60° WNW 11:07:27 10° N
X-37B 0.9 11:07:01 10° WSW 11:10:03 46° NW 11:13:08 10° NNE
Okean O Rocket 4.4 11:06:37 10° NE 11:10:09 24° E 11:13:42 10° SSE
PSLV R/B 4.0 11:06:06 10° NNE 11:10:11 83° E 11:14:12 10° S
CZ-4B R/B 2.0 11:08:40 10° S 11:11:53 38° W 11:15:07 10° NNW
Ariane H10-3 4.0 11:11:04 10° SSW 11:12:24 13° S 11:13:38 10° SE
Cosmos 2098 Rocket 4.1 11:06:05 10° S 11:13:13 81° W 11:19:15 10° N
Cosmos 1689 Rocket 2.8 11:11:24 10° SSE 11:14:17 55° ENE 11:17:09 10° N
Cosmos 1697 Rocket 2.7 11:11:50 10° NNW 11:17:26 67° WSW 11:23:02 10° S
